Location: Kellogg
(38.0159°N, 90.0546°W)
Time: 09:00:29
(UTC+00:00)

Altair - Pass Details

Date: 16 September 2024
Orbit: 1501 x 1682 km, 47.2° (Epoch: 07 October)

Event Time Altitude Azimuth Distance (km) Brightness Sun altitude
Rises 15:25:08 0° 300° (WNW) 4,938 9.7 40.5°
Reaches altitude 10° 15:28:29 10° 294° (WNW) 3,941 9.3 41.0°
Maximum altitude 15:37:51 45° 227° (SW) 2,141 8.7 42.5°
Drops below altitude 10° 15:46:59 10° 158° (SSE) 3,830 10.5 43.8°
Sets 15:50:13 0° 152° (SSE) 4,788 10.8 44.3°
